Date String (YYYY-MM-DD hh:mm:ss) UTC,Instrument flags,absolute air pressure of the measurement (hPa),sample flow rate (lpm),inlet stack bypass flow (lpm),air temperature of the measurement (°C),ambient temperature measured by the external sensor (°C),aerosol sample conditioner tube jacket temperature (°C),OPC LED temperature (°C),internal box temperature (°C),relative humidity of the measurement (%),span deviation,mass concentration of particles derived from Lorenz-Mie calculation of OPC scattering (μg/m³),mass concentration of particles derived from Lorenz-Mie calculation of OPC scattering (μg/m³),mass concentration of particles derived from Lorenz-Mie calculation of OPC scattering (μg/m³)
DateTimeUTC,F1_M11,P_M11,Q1_M11,Q2_M11,T1_M11,T2_M11,T3_M11,T4_M11,T5_M11,U1_M11,ZSPAN_M11,X2_M11,X0_M11,X1_M11
2023-10-14 23:00:00,SystemResetWarning,0836.8,5.00,000.00,028.1,026.7,000.0,036.7,029.7,13.3,0000.1,0005.38,0010.88,0005.00
2023-10-14 23:01:00,SystemResetWarning,0836.8,5.00,000.00,028.1,026.7,000.0,036.7,029.7,13.3,0000.2,0005.38,0010.73,0005.00
2023-10-14 23:02:00,SystemResetWarning,0836.9,5.00,000.00,028.1,026.7,000.0,036.6,029.7,13.2,0000.2,0005.40,0010.47,0005.01
2023-10-14 23:03:00,SystemResetWarning,0836.9,5.00,000.00,028.1,026.7,000.0,036.6,029.7,13.3,0000.4,0005.41,0010.17,0005.02
2023-10-14 23:04:00,SystemResetWarning,0837.0,5.01,000.00,028.1,026.7,000.0,036.6,029.7,13.4,0000.4,0005.43,0010.25,0005.03
2023-10-14 23:05:00,SystemResetWarning,0836.9,5.00,000.00,028.1,026.7,000.0,036.6,029.7,13.4,0000.2,0005.44,0010.22,0005.04
2023-10-14 23:06:00,SystemResetWarning,0837.0,5.00,000.00,028.1,026.7,000.0,036.6,029.7,13.4,-000.6,0005.44,0010.59,0005.06
2023-10-14 23:07:00,SystemResetWarning,0836.9,5.00,000.00,028.1,026.7,000.0,036.6,029.7,13.4,-001.0,0005.43,0011.06,0005.06
2023-10-14 23:08:00,SystemResetWarning,0837.0,4.99,000.00,028.1,026.7,000.0,036.6,029.7,13.5,-000.6,0005.46,0011.65,0005.06
2023-10-14 23:09:00,SystemResetWarning,0836.9,5.00,000.00,028.1,026.7,000.0,036.6,029.7,13.4,-000.1,0005.47,0010.51,0005.05
2023-10-14 23:10:00,SystemResetWarning,0837.0,5.00,000.00,028.1,026.7,000.0,036.6,029.7,13.4,-000.1,0005.50,0010.73,0005.06
2023-10-14 23:11:00,SystemResetWarning,0837.0,5.00,000.00,028.1,026.7,000.0,036.6,029.6,13.5,0000.0,0005.47,0010.67,0005.05
2023-10-14 23:12:00,SystemResetWarning,0837.0,5.01,000.00,028.1,026.7,000.0,036.6,029.6,13.4,0000.1,0005.44,0011.18,0005.03
2023-10-14 23:13:00,SystemResetWarning,0837.1,5.01,000.00,028.1,026.7,000.0,036.6,029.7,13.5,-000.6,0005.42,0011.25,0005.03
2023-10-14 23:14:00,SystemResetWarning,0837.1,5.00,000.00,028.1,026.7,000.0,036.6,029.7,13.4,-000.6,0005.39,0011.25,0005.02
2023-10-14 23:15:00,SystemResetWarning,0837.1,5.00,000.00,028.1,026.7,000.0,036.6,029.7,13.3,-000.3,0005.38,0011.25,0005.01
2023-10-14 23:16:00,SystemResetWarning,0837.0,4.99,000.00,028.1,026.7,000.0,036.6,029.6,13.3,-000.3,0005.38,0011.29,0004.99
2023-10-14 23:17:00,SystemResetWarning,0837.0,5.00,000.00,028.1,026.6,000.0,036.6,029.6,13.2,0000.9,0005.38,0010.87,0004.98
2023-10-14 23:18:00,SystemResetWarning,0836.9,4.99,000.00,028.1,026.6,000.0,036.6,029.6,13.3,0001.4,0005.41,0010.91,0004.95
2023-10-14 23:19:00,SystemResetWarning,0837.0,5.01,000.00,028.1,026.6,000.0,036.6,029.6,13.3,0001.1,0005.38,0010.70,0004.92
2023-10-14 23:20:00,SystemResetWarning,0837.1,5.01,000.00,028.0,026.6,000.0,036.5,029.6,13.3,-000.3,0005.34,0010.68,0004.90
2023-10-14 23:21:00,SystemResetWarning,0837.2,5.00,000.00,028.0,026.6,000.0,036.5,029.6,13.3,-001.1,0005.33,0010.64,0004.89
2023-10-14 23:22:00,SystemResetWarning,0837.2,4.98,000.00,028.0,026.6,000.0,036.5,029.6,13.4,-001.0,0005.30,0009.99,0004.88
2023-10-14 23:23:00,SystemResetWarning,0837.2,5.00,000.00,028.0,026.7,000.0,036.5,029.6,13.4,-000.9,0005.33,0009.56,0004.88
2023-10-14 23:24:00,SystemResetWarning,0837.2,5.01,000.00,028.0,026.7,000.0,036.5,029.6,13.3,-001.2,0005.37,0009.87,0004.88
2023-10-14 23:25:00,SystemResetWarning,0837.2,5.01,000.00,028.0,026.7,000.0,036.5,029.6,13.4,-001.2,0005.40,0010.35,0004.87
2023-10-14 23:26:00,SystemResetWarning,0837.2,5.00,000.00,028.0,026.7,000.0,036.5,029.6,13.4,-001.4,0005.42,0010.60,0004.88
2023-10-14 23:27:00,SystemResetWarning,0837.2,5.00,000.00,028.0,026.7,000.0,036.5,029.6,13.5,-001.1,0005.45,0011.01,0004.90
2023-10-14 23:28:00,SystemResetWarning,0837.2,5.00,000.00,028.0,026.7,000.0,036.5,029.6,13.5,-001.0,0005.46,0011.04,0004.91
2023-10-14 23:29:00,SystemResetWarning,0837.2,5.00,000.00,028.1,026.7,000.0,036.5,029.6,13.4,-001.2,0005.42,0010.78,0004.90
2023-10-14 23:30:00,SystemResetWarning,0837.2,4.99,000.00,028.1,026.7,000.0,036.5,029.7,13.4,-001.8,0005.43,0010.03,0004.92
2023-10-14 23:31:00,SystemResetWarning,0837.2,5.00,000.00,028.1,026.7,000.0,036.5,029.7,13.3,-001.6,0005.44,0010.02,0004.93
2023-10-14 23:32:00,SystemResetWarning,0837.2,5.00,000.00,028.1,026.8,000.0,036.5,029.7,13.3,-000.7,0005.42,0010.24,0004.93
2023-10-14 23:33:00,SystemResetWarning,0837.2,5.00,000.00,028.1,026.8,000.0,036.5,029.7,13.4,-000.0,0005.46,0010.49,0004.94
2023-10-14 23:34:00,SystemResetWarning,0837.2,5.00,000.00,028.1,026.8,000.0,036.5,029.7,13.4,-000.1,0005.49,0010.52,0004.95
2023-10-14 23:35:00,SystemResetWarning,0837.2,5.00,000.00,028.1,026.8,000.0,036.5,029.7,13.4,0001.0,0005.50,0010.55,0004.97
2023-10-14 23:36:00,SystemResetWarning,0837.2,5.00,000.00,028.1,026.8,000.0,036.5,029.7,13.4,0000.9,0005.50,0010.15,0004.98
2023-10-14 23:37:00,SystemResetWarning,0837.2,5.00,000.00,028.1,026.8,000.0,036.5,029.7,13.4,0001.1,0005.51,0009.99,0004.98
2023-10-14 23:38:00,SystemResetWarning,0837.2,5.00,000.00,028.1,026.8,000.0,036.5,029.7,13.4,0000.9,0005.52,0010.06,0004.99
2023-10-14 23:39:00,SystemResetWarning,0837.2,5.00,000.00,028.1,026.8,000.0,036.5,029.7,13.4,0000.8,0005.49,0010.75,0004.99
2023-10-14 23:40:00,SystemResetWarning,0837.2,5.00,000.00,028.1,026.8,000.0,036.6,029.7,13.4,0001.9,0005.47,0010.68,0004.98
2023-10-14 23:41:00,SystemResetWarning,0837.2,5.00,000.00,028.1,026.8,000.0,036.5,029.7,13.3,0002.2,0005.44,0010.72,0004.97
2023-10-14 23:42:00,SystemResetWarning,0837.2,5.00,000.00,028.1,026.8,000.0,036.6,029.7,13.1,0002.3,0005.46,0010.97,0004.98
2023-10-14 23:43:00,SystemResetWarning,0837.2,5.00,000.00,028.1,026.8,000.0,036.6,029.7,13.2,0002.0,0005.50,0011.54,0004.98
2023-10-14 23:44:00,SystemResetWarning,0837.2,5.00,000.00,028.1,026.8,000.0,036.6,029.7,13.3,0001.7,0005.48,0011.99,0004.99
2023-10-14 23:45:00,SystemResetWarning,0837.3,5.00,000.00,028.1,026.8,000.0,036.5,029.7,13.3,0002.1,0005.48,0012.17,0005.00
2023-10-14 23:46:00,SystemResetWarning,0837.2,5.00,000.00,028.1,026.8,000.0,036.5,029.7,13.3,0001.5,0005.48,0011.95,0004.99
2023-10-14 23:47:00,SystemResetWarning,0837.2,5.00,000.00,028.1,026.8,000.0,036.6,029.8,13.2,0001.7,0005.49,0011.99,0004.99
2023-10-14 23:48:00,SystemResetWarning,0837.2,5.00,000.00,028.2,026.8,000.0,036.6,029.8,13.2,0002.0,0005.54,0012.15,0005.00
2023-10-14 23:49:00,SystemResetWarning,0837.2,5.00,000.00,028.2,026.8,000.0,036.6,029.8,13.2,0002.1,0005.55,0012.71,0005.00
2023-10-14 23:50:00,SystemResetWarning,0837.2,5.00,000.00,028.2,026.8,000.0,036.6,029.8,13.1,0001.9,0005.59,0012.29,0005.01
2023-10-14 23:51:00,SystemResetWarning,0837.2,5.00,000.00,028.2,026.8,000.0,036.6,029.8,13.1,0001.3,0005.64,0013.05,0005.02
2023-10-14 23:52:00,SystemResetWarning,0837.2,4.99,000.00,028.2,026.8,000.0,036.6,029.8,13.1,0001.6,0005.66,0013.06,0005.04
2023-10-14 23:53:00,SystemResetWarning,0837.2,5.00,000.00,028.2,026.9,000.0,036.6,029.8,13.1,0002.1,0005.69,0012.91,0005.05
2023-10-14 23:54:00,SystemResetWarning,0837.2,5.00,000.00,028.2,026.9,000.0,036.6,029.8,13.1,0002.4,0005.70,0012.93,0005.06
2023-10-14 23:55:00,SystemResetWarning,0837.2,5.01,000.00,028.2,026.9,000.0,036.6,029.8,13.1,0002.3,0005.71,0012.67,0005.06
2023-10-14 23:56:00,SystemResetWarning,0837.2,5.01,000.00,028.2,026.9,000.0,036.6,029.8,13.0,0001.6,0005.74,0012.78,0005.06
2023-10-14 23:57:00,SystemResetWarning,0837.2,5.00,000.00,028.2,026.9,000.0,036.6,029.8,13.0,0002.2,0005.72,0012.51,0005.07
2023-10-14 23:58:00,SystemResetWarning,0837.2,4.99,000.00,028.2,026.9,000.0,036.6,029.8,13.0,0002.6,0005.71,0012.67,0005.07
2023-10-14 23:59:00,SystemResetWarning,0837.2,4.99,000.00,028.2,026.9,000.0,036.6,029.9,13.0,0002.5,0005.67,0013.15,0005.07
